Location: Emporia
(38.4040°N, 96.1810°W)
Time: 07:11:18
(UTC-05:00)

STARS - Visible Passes

Search period start: 26 April 2018 00:00
Search period end: 06 May 2018 00:00
Orbit: 624 x 642 km, 98.3° (Epoch: 26 April)

Date Brightness Start Highest point End Pass type
(mag) Time Alt. Az. Time Alt. Az. Time Alt. Az.
27 Apr ? 05:40:19 10° ENE 05:41:26 11° ENE 05:42:34 10° NE visible
27 Apr ? 20:39:59 10° N 20:43:44 28° WNW 20:47:30 10° SW visible
28 Apr ? 05:59:32 10° ESE 06:02:29 18° ENE 06:05:26 10° NNE visible
28 Apr ? 21:01:57 10° NNW 21:04:51 18° WNW 21:07:45 10° WSW visible
29 Apr ? 21:25:00 10° NW 21:25:53 11° WNW 21:26:47 10° WNW visible
02 May ? 05:49:17 10° E 05:51:26 14° ENE 05:53:36 10° NE visible
02 May ? 20:50:20 10° NNW 20:53:47 23° WNW 20:57:15 10° WSW visible
03 May ? 21:12:32 10° NNW 21:14:52 14° WNW 21:17:12 10° W visible
